FIN4AM ESGG-EFHK

Flight info

Callsign FIN4AM
Flight time 1h 6m
Altitude 35000
Route LABAN N873 DETSO DCT TUSNI DCT RIRIP Y364 LAKUT
Aircraft A320/M-SDE3FGHIRWY/LB1

Departure

Time 2026-05-07 17:19
Airport Göteborg Landvetter Airport (ESGG)

Arrival

Time 2026-05-07 18:26
Airport Helsinki Vantaa Airport (EFHK)
Time Latitude Longitude Altitude Speed Heading
2026-05-07 16:45 57.66933 12.29465 516 ft 0 kts 116°
2026-05-07 17:06 57.66939 12.29440 516 ft 3 kts 116°
2026-05-07 17:06 57.66949 12.29401 516 ft 3 kts 109°
2026-05-07 17:06 57.66954 12.29359 516 ft 3 kts 81°
2026-05-07 17:07 57.66946 12.29324 516 ft 3 kts 35°
2026-05-07 17:07 57.66936 12.29313 516 ft 1 kts 26°
2026-05-07 17:07 57.66935 12.29313 516 ft 0 kts 26°
2026-05-07 17:11 57.66937 12.29314 516 ft 3 kts 26°
2026-05-07 17:11 57.66956 12.29323 516 ft 1 kts
2026-05-07 17:11 57.66987 12.29280 516 ft 11 kts 307°
2026-05-07 17:11 57.67043 12.29198 516 ft 12 kts
2026-05-07 17:12 57.67153 12.29285 516 ft 20 kts 24°
2026-05-07 17:12 57.67277 12.29398 516 ft 20 kts 27°
2026-05-07 17:12 57.67365 12.29480 516 ft 10 kts 24°
2026-05-07 17:12 57.67419 12.29443 515 ft 9 kts 305°
2026-05-07 17:13 57.67447 12.29340 516 ft 7 kts 296°
2026-05-07 17:13 57.67459 12.29276 515 ft 0 kts 282°
2026-05-07 17:14 57.67460 12.29259 515 ft 7 kts 279°
2026-05-07 17:14 57.67459 12.29106 515 ft 9 kts 264°
2026-05-07 17:15 57.67423 12.29018 515 ft 7 kts 207°
2026-05-07 17:15 57.67413 12.29009 515 ft 0 kts 206°
2026-05-07 17:18 57.67304 12.28908 515 ft 53 kts 207°
2026-05-07 17:18 57.66761 12.28405 513 ft 119 kts 205°
2026-05-07 17:19 57.65863 12.27549 533 ft 166 kts 212°
2026-05-07 17:19 57.64885 12.26604 1295 ft 159 kts 209°
2026-05-07 17:19 57.63865 12.25682 1955 ft 166 kts 210°
2026-05-07 17:19 57.62728 12.24917 2266 ft 190 kts 186°
2026-05-07 17:20 57.61355 12.25419 2556 ft 216 kts 155°
2026-05-07 17:20 57.59946 12.26623 3284 ft 221 kts 155°
2026-05-07 17:20 57.58567 12.27784 4171 ft 219 kts 154°
2026-05-07 17:20 57.57374 12.29493 5006 ft 219 kts 125°
2026-05-07 17:21 57.56820 12.32151 5631 ft 231 kts 94°
2026-05-07 17:21 57.57157 12.35236 6013 ft 255 kts 69°
2026-05-07 17:21 57.57849 12.38401 6627 ft 268 kts 68°
2026-05-07 17:21 57.58551 12.41608 7384 ft 274 kts 68°
2026-05-07 17:22 57.59275 12.44941 8180 ft 280 kts 68°
2026-05-07 17:22 57.60006 12.48345 8948 ft 286 kts 68°
2026-05-07 17:22 57.60752 12.51843 9734 ft 293 kts 68°
2026-05-07 17:22 57.61553 12.55364 10483 ft 298 kts 60°
2026-05-07 17:23 57.62865 12.58490 10745 ft 319 kts 41°
2026-05-07 17:23 57.64557 12.61357 11144 ft 334 kts 40°
2026-05-07 17:23 57.66303 12.64265 11834 ft 339 kts 39°
2026-05-07 17:23 57.68083 12.67214 12565 ft 344 kts 39°
2026-05-07 17:24 57.69885 12.70203 13297 ft 348 kts 40°
2026-05-07 17:24 57.71697 12.73223 14022 ft 352 kts 40°
2026-05-07 17:24 57.73533 12.76295 14662 ft 356 kts 40°
2026-05-07 17:24 57.75385 12.79400 15008 ft 359 kts 40°
2026-05-07 17:25 57.77246 12.82529 15095 ft 359 kts 40°
2026-05-07 17:25 57.79105 12.85662 15110 ft 359 kts 40°
2026-05-07 17:25 57.80971 12.88805 15610 ft 363 kts 40°
2026-05-07 17:25 57.82856 12.91984 16282 ft 366 kts 39°
2026-05-07 17:26 57.84753 12.95192 16901 ft 370 kts 39°
2026-05-07 17:26 57.86676 12.98449 17519 ft 374 kts 39°
2026-05-07 17:26 57.88618 13.01741 18133 ft 378 kts 39°
2026-05-07 17:26 57.90572 13.05063 18691 ft 382 kts 39°
2026-05-07 17:27 57.92550 13.08435 19218 ft 385 kts 39°
2026-05-07 17:27 57.94546 13.11841 19751 ft 389 kts 39°
2026-05-07 17:27 57.96554 13.15265 20279 ft 392 kts 39°
2026-05-07 17:27 57.98584 13.18735 20820 ft 395 kts 39°
2026-05-07 17:28 58.00632 13.22241 21344 ft 399 kts 39°
2026-05-07 17:28 58.02690 13.25768 21868 ft 402 kts 39°
2026-05-07 17:28 58.04773 13.29340 22392 ft 406 kts 39°
2026-05-07 17:28 58.06864 13.32939 22897 ft 409 kts 39°
2026-05-07 17:29 58.08979 13.36587 23415 ft 413 kts 39°
2026-05-07 17:29 58.11107 13.40261 23874 ft 416 kts 39°
2026-05-07 17:29 58.13254 13.43974 24290 ft 419 kts 39°
2026-05-07 17:29 58.15382 13.47666 24703 ft 421 kts 39°
2026-05-07 17:30 58.17545 13.51417 25113 ft 424 kts 39°
2026-05-07 17:30 58.19727 13.55203 25510 ft 426 kts 39°
2026-05-07 17:30 58.21944 13.59063 25905 ft 428 kts 39°
2026-05-07 17:30 58.24115 13.62852 26285 ft 430 kts 39°
2026-05-07 17:31 58.26347 13.66758 26661 ft 433 kts 39°
2026-05-07 17:31 58.28537 13.70599 27017 ft 435 kts 39°
2026-05-07 17:31 58.30762 13.74503 27382 ft 438 kts 39°
2026-05-07 17:31 58.33010 13.78446 27737 ft 440 kts 39°
2026-05-07 17:32 58.35270 13.82413 28093 ft 442 kts 39°
2026-05-07 17:32 58.37530 13.86393 28442 ft 444 kts 39°
2026-05-07 17:32 58.39807 13.90412 28784 ft 447 kts 39°
2026-05-07 17:32 58.41348 13.93137 29005 ft 448 kts 39°
2026-05-07 17:33 58.44382 13.98511 29436 ft 451 kts 39°
2026-05-07 17:33 58.46687 14.02601 29750 ft 453 kts 39°
2026-05-07 17:33 58.48991 14.06705 30072 ft 455 kts 39°
2026-05-07 17:33 58.51311 14.10848 30336 ft 457 kts 39°
2026-05-07 17:34 58.53638 14.15010 30587 ft 458 kts 39°
2026-05-07 17:34 58.55967 14.19178 30837 ft 461 kts 38°
2026-05-07 17:34 58.58304 14.23416 31050 ft 464 kts 41°
2026-05-07 17:34 58.60398 14.28166 31273 ft 471 kts 50°
2026-05-07 17:35 58.62137 14.33539 31542 ft 475 kts 56°
2026-05-07 17:35 58.63773 14.39041 31872 ft 473 kts 56°
2026-05-07 17:35 58.65410 14.44502 32206 ft 472 kts 56°
2026-05-07 17:35 58.67053 14.49963 32541 ft 471 kts 56°
2026-05-07 17:36 58.68687 14.55397 32870 ft 470 kts 56°
2026-05-07 17:36 58.70318 14.60848 33194 ft 469 kts 56°
2026-05-07 17:36 58.71937 14.66292 33541 ft 467 kts 56°
2026-05-07 17:36 58.73539 14.71701 33908 ft 465 kts 56°
2026-05-07 17:37 58.75138 14.77116 34229 ft 464 kts 56°
2026-05-07 17:37 58.76733 14.82536 34454 ft 466 kts 56°
2026-05-07 17:37 58.78334 14.87974 34631 ft 467 kts 56°
2026-05-07 17:37 58.79936 14.93420 34833 ft 468 kts 56°
2026-05-07 17:38 58.81544 14.98902 35036 ft 469 kts 57°
2026-05-07 17:38 58.83141 15.04369 35102 ft 466 kts 57°
2026-05-07 17:38 58.86301 15.15226 35103 ft 462 kts 57°
2026-05-07 17:39 58.89438 15.26050 35100 ft 461 kts 57°
2026-05-07 17:39 58.92565 15.36908 35100 ft 461 kts 57°
2026-05-07 17:40 58.95682 15.47771 35103 ft 462 kts 57°
2026-05-07 17:40 58.98802 15.58680 35103 ft 463 kts 57°
2026-05-07 17:41 59.01398 15.67790 35088 ft 464 kts 57°
2026-05-07 17:41 59.05016 15.80578 35092 ft 465 kts 57°
2026-05-07 17:42 59.08119 15.91608 35090 ft 465 kts 57°
2026-05-07 17:42 59.10702 16.00798 35091 ft 466 kts 57°
2026-05-07 17:43 59.13796 16.11871 35098 ft 466 kts 57°
2026-05-07 17:43 59.16881 16.22966 35123 ft 466 kts 57°
2026-05-07 17:44 59.19965 16.34108 35093 ft 468 kts 57°
2026-05-07 17:44 59.23047 16.45324 35091 ft 469 kts 57°
2026-05-07 17:45 59.26115 16.56564 35095 ft 469 kts 57°
2026-05-07 17:45 59.29180 16.67835 35096 ft 470 kts 57°
2026-05-07 17:46 59.32243 16.79131 35099 ft 470 kts 58°
2026-05-07 17:46 59.34893 16.90905 35103 ft 473 kts 64°
2026-05-07 17:47 59.37403 17.02851 35121 ft 474 kts 64°
2026-05-07 17:47 59.39906 17.14832 35103 ft 475 kts 64°
2026-05-07 17:48 59.42412 17.26865 35102 ft 476 kts 64°
2026-05-07 17:48 59.44912 17.38907 35107 ft 476 kts 64°
2026-05-07 17:49 59.47398 17.50976 35102 ft 477 kts 64°
2026-05-07 17:49 59.49867 17.63070 35103 ft 477 kts 64°
2026-05-07 17:50 59.52330 17.75204 35115 ft 476 kts 64°
2026-05-07 17:50 59.54779 17.87324 35142 ft 477 kts 64°
2026-05-07 17:51 59.57223 17.99515 35113 ft 479 kts 65°
2026-05-07 17:51 59.59666 18.11756 35106 ft 480 kts 65°
2026-05-07 17:52 59.62104 18.24045 35123 ft 481 kts 65°
2026-05-07 17:52 59.64525 18.36368 35128 ft 481 kts 65°
2026-05-07 17:53 59.66939 18.48732 35127 ft 482 kts 65°
2026-05-07 17:53 59.69350 18.61108 35129 ft 482 kts 65°
2026-05-07 17:54 59.71734 18.73421 35160 ft 483 kts 65°
2026-05-07 17:54 59.74134 18.85839 35148 ft 483 kts 66°
2026-05-07 17:55 59.76517 18.98308 35152 ft 484 kts 66°
2026-05-07 17:55 59.78886 19.10830 35137 ft 484 kts 66°
2026-05-07 17:56 59.81243 19.23349 35142 ft 484 kts 66°
2026-05-07 17:56 59.83591 19.35886 35142 ft 484 kts 66°
2026-05-07 17:57 59.85534 19.46330 35143 ft 484 kts 66°
2026-05-07 17:57 59.88252 19.61024 35186 ft 484 kts 66°
2026-05-07 17:58 59.90573 19.73653 35160 ft 485 kts 66°
2026-05-07 17:58 59.92883 19.86291 35152 ft 486 kts 67°
2026-05-07 17:59 59.95179 19.98964 35150 ft 486 kts 67°
2026-05-07 17:59 59.97461 20.11664 35150 ft 487 kts 67°
2026-05-07 18:00 59.99742 20.24403 35152 ft 487 kts 67°
2026-05-07 18:00 60.01995 20.37068 35146 ft 487 kts 68°
2026-05-07 18:01 60.04245 20.49838 35150 ft 487 kts 68°
2026-05-07 18:01 60.06487 20.62654 35018 ft 488 kts 68°
2026-05-07 18:02 60.08713 20.75443 34334 ft 484 kts 68°
2026-05-07 18:02 60.09816 20.81806 33960 ft 481 kts 67°
2026-05-07 18:02 60.10906 20.88116 33550 ft 479 kts 67°
2026-05-07 18:03 60.11989 20.94414 33125 ft 476 kts 67°
2026-05-07 18:03 60.13057 21.00658 32722 ft 473 kts 68°
2026-05-07 18:03 60.14118 21.06890 32325 ft 470 kts 68°
2026-05-07 18:03 60.15169 21.13091 31909 ft 467 kts 68°
2026-05-07 18:04 60.16208 21.19236 31532 ft 464 kts 68°
2026-05-07 18:04 60.17245 21.25368 31154 ft 462 kts 68°
2026-05-07 18:04 60.18271 21.31452 30784 ft 460 kts 68°
2026-05-07 18:04 60.19291 21.37531 30406 ft 458 kts 68°
2026-05-07 18:05 60.20274 21.43628 29891 ft 459 kts 72°
2026-05-07 18:05 60.20974 21.49891 29344 ft 458 kts 76°
2026-05-07 18:05 60.21630 21.56127 28785 ft 456 kts 76°
2026-05-07 18:05 60.22280 21.62359 28217 ft 454 kts 76°
2026-05-07 18:06 60.22927 21.68565 27682 ft 452 kts 76°
2026-05-07 18:06 60.23568 21.74723 27171 ft 449 kts 76°
2026-05-07 18:06 60.24208 21.80859 26697 ft 446 kts 76°
2026-05-07 18:06 60.24837 21.86937 26238 ft 443 kts 76°
2026-05-07 18:07 60.25459 21.92990 25757 ft 440 kts 76°
2026-05-07 18:07 60.26073 21.99015 25300 ft 437 kts 77°
2026-05-07 18:07 60.26682 22.05002 24858 ft 434 kts 77°
2026-05-07 18:07 60.27280 22.10932 24425 ft 431 kts 77°
2026-05-07 18:08 60.27871 22.16847 23997 ft 429 kts 77°
2026-05-07 18:08 60.28455 22.22725 23544 ft 426 kts 77°
2026-05-07 18:08 60.29034 22.28549 23035 ft 424 kts 77°
2026-05-07 18:08 60.29613 22.34361 22541 ft 421 kts 77°
2026-05-07 18:09 60.30185 22.40122 22044 ft 419 kts 77°
2026-05-07 18:09 60.30750 22.45875 21563 ft 417 kts 77°
2026-05-07 18:09 60.31307 22.51583 21146 ft 414 kts 77°
2026-05-07 18:09 60.31858 22.57281 20663 ft 412 kts 77°
2026-05-07 18:10 60.32404 22.62951 20199 ft 410 kts 77°
2026-05-07 18:10 60.32947 22.68573 19745 ft 408 kts 77°
2026-05-07 18:10 60.33489 22.74186 19282 ft 406 kts 77°
2026-05-07 18:10 60.34024 22.79763 18828 ft 404 kts 77°
2026-05-07 18:11 60.34554 22.85324 18396 ft 402 kts 77°
2026-05-07 18:11 60.34900 22.88988 18060 ft 401 kts 77°
2026-05-07 18:11 60.35592 22.96354 17399 ft 398 kts 77°
2026-05-07 18:11 60.36098 23.01762 16914 ft 396 kts 77°
2026-05-07 18:12 60.36610 23.07269 16451 ft 393 kts 77°
2026-05-07 18:12 60.37102 23.12604 16053 ft 389 kts 77°
2026-05-07 18:12 60.37597 23.18010 15664 ft 385 kts 77°
2026-05-07 18:12 60.38075 23.23241 15277 ft 381 kts 77°
2026-05-07 18:13 60.38553 23.28491 14903 ft 377 kts 77°
2026-05-07 18:13 60.39030 23.33761 14518 ft 374 kts 77°
2026-05-07 18:13 60.39489 23.38828 14154 ft 370 kts 77°
2026-05-07 18:13 60.39951 23.43933 13767 ft 367 kts 77°
2026-05-07 18:14 60.40407 23.48989 13350 ft 363 kts 77°
2026-05-07 18:14 60.40854 23.53979 12929 ft 359 kts 78°
2026-05-07 18:14 60.41294 23.58930 12526 ft 355 kts 78°
2026-05-07 18:14 60.41725 23.63811 12135 ft 351 kts 78°
2026-05-07 18:15 60.42152 23.68650 11757 ft 347 kts 78°
2026-05-07 18:15 60.42570 23.73420 11442 ft 340 kts 78°
2026-05-07 18:15 60.42975 23.78066 11183 ft 332 kts 78°
2026-05-07 18:15 60.43370 23.82624 10926 ft 325 kts 78°
2026-05-07 18:16 60.43753 23.87069 10660 ft 318 kts 79°
2026-05-07 18:16 60.44081 23.91453 10406 ft 311 kts 81°
2026-05-07 18:16 60.44337 23.95763 10155 ft 305 kts 83°
2026-05-07 18:16 60.44497 23.99983 9958 ft 297 kts 86°
2026-05-07 18:17 60.44583 24.04148 9598 ft 295 kts 87°
2026-05-07 18:17 60.44638 24.08292 9188 ft 293 kts 88°
2026-05-07 18:17 60.44684 24.12417 8720 ft 294 kts 88°
2026-05-07 18:17 60.44733 24.16538 8335 ft 291 kts 87°
2026-05-07 18:18 60.44786 24.20635 7958 ft 288 kts 88°
2026-05-07 18:18 60.44845 24.24702 7525 ft 288 kts 87°
2026-05-07 18:18 60.44910 24.28744 7061 ft 288 kts 88°
2026-05-07 18:18 60.44974 24.32760 6785 ft 282 kts 86°
2026-05-07 18:19 60.45032 24.36694 6425 ft 278 kts 86°
2026-05-07 18:19 60.45087 24.40514 6185 ft 261 kts 86°
2026-05-07 18:19 60.45132 24.44054 5950 ft 244 kts 86°
2026-05-07 18:19 60.45178 24.47460 5280 ft 246 kts 85°
2026-05-07 18:20 60.45227 24.50979 4611 ft 247 kts 85°
2026-05-07 18:20 60.45271 24.54428 4134 ft 242 kts 86°
2026-05-07 18:20 60.45317 24.57836 3729 ft 243 kts 86°
2026-05-07 18:20 60.45363 24.61202 3481 ft 236 kts 86°
2026-05-07 18:21 60.45405 24.64418 3420 ft 223 kts 86°
2026-05-07 18:21 60.45441 24.67513 3360 ft 217 kts 86°
2026-05-07 18:21 60.45476 24.70559 3277 ft 215 kts 86°
2026-05-07 18:21 60.45512 24.73573 3184 ft 214 kts 86°
2026-05-07 18:22 60.45551 24.76591 3092 ft 214 kts 86°
2026-05-07 18:22 60.45571 24.78626 3032 ft 214 kts 89°
2026-05-07 18:22 60.45092 24.82411 2903 ft 206 kts 118°
2026-05-07 18:22 60.44222 24.84642 2687 ft 199 kts 140°
2026-05-07 18:23 60.43068 24.86100 2436 ft 195 kts 154°
2026-05-07 18:23 60.41867 24.87339 2172 ft 193 kts 154°
2026-05-07 18:23 60.40679 24.88568 1909 ft 190 kts 154°
2026-05-07 18:23 60.39522 24.89763 1644 ft 182 kts 155°
2026-05-07 18:24 60.38432 24.90888 1401 ft 170 kts 155°
2026-05-07 18:24 60.37435 24.91917 1182 ft 154 kts 155°
2026-05-07 18:24 60.36516 24.92863 977 ft 143 kts 156°
2026-05-07 18:24 60.35652 24.93751 784 ft 136 kts 156°
2026-05-07 18:25 60.34815 24.94611 606 ft 134 kts 155°
2026-05-07 18:25 60.33988 24.95457 430 ft 133 kts 154°
2026-05-07 18:25 60.33170 24.96302 259 ft 132 kts 154°
2026-05-07 18:25 60.32397 24.97105 165 ft 112 kts 154°
2026-05-07 18:26 60.31871 24.97633 152 ft 49 kts 153°
2026-05-07 18:26 60.31692 24.97753 152 ft 17 kts 217°
2026-05-07 18:26 60.31675 24.97656 154 ft 1 kts 259°
2026-05-07 18:26 60.31669 24.97621 154 ft 0 kts 252°
2026-05-07 18:27 60.31668 24.97614 155 ft 5 kts 252°
2026-05-07 18:27 60.31666 24.97534 158 ft 9 kts 285°
2026-05-07 18:28 60.31715 24.97457 159 ft 12 kts 329°
2026-05-07 18:28 60.31787 24.97383 161 ft 10 kts 334°
2026-05-07 18:28 60.31856 24.97316 162 ft 16 kts 333°
2026-05-07 18:28 60.31927 24.97218 163 ft 9 kts 295°
2026-05-07 18:29 60.31929 24.97192 164 ft 0 kts 276°
2026-05-07 18:29 60.31929 24.97182 164 ft 8 kts 268°
2026-05-07 18:29 60.31886 24.97093 166 ft 5 kts 223°
2026-05-07 18:29 60.31873 24.97040 166 ft 4 kts 246°
2026-05-07 18:30 60.31871 24.97031 166 ft 1 kts 245°
2026-05-07 18:30 60.31866 24.97011 166 ft 0 kts 244°
2026-05-07 18:30 60.31866 24.97009 166 ft 0 kts 244°
2026-05-07 18:30 60.31863 24.96998 166 ft 2 kts 243°
2026-05-07 18:31 60.31862 24.96994 166 ft 0 kts 243°